| Temperature (°F) | Max | Average | Min |
|---|---|---|---|
| Max Temperature | 106 | 98.61 | 81 |
| Avg Temperature | 90.8 | 85.97 | 75.5 |
| Min Temperature | 82 | 76.58 | 66 |
| Precipitation (in) | Max | Average | Min | Sum |
|---|---|---|---|---|
| Precipitation | 0 | 0 | 0 | 0 |
| Dew Point (°F) | Max | Average | Min |
|---|---|---|---|
| Dew Point | 71.5 | 65.47 | 57.5 |
| Wind (mph) | Max | Average | Min |
|---|---|---|---|
| Wind | 12 | 8.1 | 5 |
| Gust Wind | - | - | - |
| Sea Level Pressure (in) | Max | Average | Min |
|---|---|---|---|
| Sea Level Pressure | 29.33 | 29.2 | 29.11 |
| Date | Temp High/Low | Dew Pt High/Low | Humidity | Wind | Max Wind | Wind Gust | Pressure | Precip. | Condition |
|---|---|---|---|---|---|---|---|---|---|
| 8/1/2026 | 103 °F / 78 °F | 69 °F / 44 °F | 43 % | 9 mph | - | 29.14 in | 0 in | ||
| 8/2/2026 | 100 °F / 77 °F | 74 °F / 52 °F | 49 % | 8 mph | - | 29.22 in | 0 in | ||
| 8/3/2026 | 102 °F / 76 °F | 70 °F / 51 °F | 53 % | 8 mph | - | 29.26 in | 0 in | ||
| 8/4/2026 | 100 °F / 77 °F | 74 °F / 65 °F | 57 % | 7 mph | - | 29.24 in | 0 in | ||
| 8/5/2026 | 102 °F / 71 °F | 69 °F / 57 °F | 51 % | 7 mph | - | 29.23 in | 0 in | ||
| 8/6/2026 | 100 °F / 77 °F | 73 °F / 67 °F | 61 % | 7 mph | - | 29.19 in | 0 in | ||
| 8/7/2026 | 103 °F / 76 °F | 75 °F / 62 °F | 64 % | 7 mph | - | 29.13 in | 0 in | ||
| 8/8/2026 | 102 °F / 78 °F | 74 °F / 55 °F | 58 % | 12 mph | - | 29.12 in | 0 in | ||
| 8/9/2026 | 101 °F / 80 °F | 69 °F / 53 °F | 49 % | 10 mph | - | 29.14 in | 0 in | ||
| 8/10/2026 | 103 °F / 74 °F | 72 °F / 59 °F | 64 % | 10 mph | - | 29.16 in | 0 in | ||
| 8/11/2026 | 102 °F / 80 °F | 73 °F / 57 °F | 46 % | 10 mph | - | 29.18 in | 0 in | ||
| 8/12/2026 | 104 °F / 79 °F | 74 °F / 54 °F | 53 % | 10 mph | - | 29.2 in | 0 in | ||
| 8/13/2026 | 102 °F / 82 °F | 66 °F / 59 °F | 42 % | 7 mph | - | 29.18 in | 0 in | ||
| 8/14/2026 | 99 °F / 82 °F | 73 °F / 60 °F | 52 % | 6 mph | - | 29.12 in | 0 in | ||
| 8/15/2026 | 97 °F / 81 °F | 76 °F / 59 °F | 57 % | 12 mph | - | 29.14 in | 0 in | ||
| 8/16/2026 | 94 °F / 78 °F | 71 °F / 63 °F | 60 % | 8 mph | - | 29.22 in | 0 in | ||
| 8/17/2026 | 81 °F / 74 °F | 72 °F / 67 °F | 79 % | 8 mph | - | 29.22 in | 0 in | ||
| 8/18/2026 | 87 °F / 72 °F | 70 °F / 64 °F | 66 % | 12 mph | - | 29.24 in | 0 in | ||
| 8/19/2026 | 94 °F / 75 °F | 69 °F / 63 °F | 62 % | 7 mph | - | 29.31 in | 0 in | ||
| 8/20/2026 | 100 °F / 75 °F | 74 °F / 60 °F | 63 % | 10 mph | - | 29.33 in | 0 in | ||
| 8/21/2026 | 106 °F / 78 °F | 73 °F / 49 °F | 47 % | 7 mph | - | 29.24 in | 0 in | ||
| 8/22/2026 | 102 °F / 80 °F | 64 °F / 51 °F | 37 % | 8 mph | - | 29.21 in | 0 in | ||
| 8/23/2026 | 103 °F / 73 °F | 73 °F / 53 °F | 48 % | 6 mph | - | 29.22 in | 0 in | ||
| 8/24/2026 | 101 °F / 74 °F | 71 °F / 67 °F | 60 % | 6 mph | - | 29.24 in | 0 in | ||
| 8/25/2026 | 104 °F / 76 °F | 72 °F / 51 °F | 55 % | 8 mph | - | 29.25 in | 0 in | ||
| 8/26/2026 | 103 °F / 80 °F | 69 °F / 62 °F | 50 % | 6 mph | - | 29.25 in | 0 in | ||
| 8/27/2026 | 104 °F / 75 °F | 74 °F / 52 °F | 62 % | 7 mph | - | 29.24 in | 0 in | ||
| 8/28/2026 | 97 °F / 78 °F | 73 °F / 70 °F | 63 % | 7 mph | - | 29.16 in | 0 in | ||
| 8/29/2026 | 85 °F / 66 °F | 72 °F / 60 °F | 71 % | 5 mph | - | 29.11 in | 0 in | ||
| 8/30/2026 | 91 °F / 74 °F | 64 °F / 56 °F | 48 % | 7 mph | - | 29.16 in | 0 in | ||
| 8/31/2026 | 85 °F / 78 °F | 64 °F / 64 °F | 56 % | 9 mph | - | 29.22 in | 0 in |